Flag for Malaysia Weather past 2 weeks in Kuching, Malaysia

Now
75 °F

Passing clouds.


Feels Like: 74 °F
Forecast: 74 / 86 °F
Wind: 3 mph from South

Location: Kuching Airport

Current Time: Mar 4, 2015 at 12:11:01 AM

Latest Report: Mar 3, 2015 at 11:30 PM


Visibility: N/A

Pressure: 29.89 "Hg

Humidity: 94%

Dew point: 73 °F

Location of KuchingLocation

Historic Weather in Kuching — Graph

°F

Kuching temperature yesterday

Maximum temperature yesterday: 86 °F (at 12:00 PM)
Minimum temperature yesterday: 75 °F (at 2:00 AM)
Average temperature yesterday: 80 °F

Past Weeks' High & Low Weather Summary

 TemperatureHumidityPressure
High90 °F (Feb 24, 4:00 PM)100% (Feb 19, 12:30 AM)29.95 "Hg (Feb 19, 12:30 AM)
Low72 °F (Feb 20, 4:00 AM)59% (Mar 1, 2:30 PM)29.74 "Hg (Feb 27, 4:00 PM)
Average80 °F84%29.86 "Hg
* Reported Feb 16 11:00 PM — Mar 3 11:00 PM, Kuching, Weather by CustomWeather, © 2015

Note: Actual official high and low records may vary slightly from our data, if they occured in-between our weather recording intervals... More about our weather records

Advertising

Kuching weather history for previous 24 hours

 ConditionsComfort  
Time TempWeatherWind HumidityBarometerVisibility
11:00 PM
Tue, Mar 3
77 °FPassing clouds.1 mph89%29.89 "HgN/A
10:30 PM79 °FPassing clouds.2 mph84%29.86 "HgN/A
10:00 PM79 °FPassing clouds.3 mph79%29.86 "HgN/A
9:30 PM79 °FPassing clouds.3 mph79%29.86 "HgN/A
9:00 PM79 °FPassing clouds.3 mph79%29.83 "HgN/A
8:30 PM81 °FPassing clouds.6 mph74%29.83 "HgN/A
8:00 PM81 °FPassing clouds.5 mph74%29.83 "HgN/A
7:30 PM81 °FPassing clouds.8 mph74%29.80 "HgN/A
7:00 PM81 °FPartly cloudy.9 mph74%29.80 "HgN/A
6:30 PM82 °FBroken clouds.9 mph70%29.80 "HgN/A
6:00 PM82 °FBroken clouds.10 mph74%29.77 "HgN/A
5:30 PM82 °FBroken clouds.12 mph70%29.77 "HgN/A
5:00 PM86 °FBroken clouds.10 mph66%29.77 "HgN/A
4:30 PM86 °FBroken clouds.9 mph62%29.77 "HgN/A
4:00 PM86 °FBroken clouds.10 mph66%29.77 "HgN/A
3:30 PM86 °FBroken clouds.12 mph66%29.80 "HgN/A
3:00 PM86 °FBroken clouds.9 mph66%29.80 "HgN/A
2:30 PM86 °FBroken clouds.9 mph66%29.80 "HgN/A
2:00 PM86 °FBroken clouds.8 mph66%29.80 "HgN/A
1:30 PM86 °FBroken clouds.8 mph66%29.83 "HgN/A
1:00 PM86 °FBroken clouds.7 mph66%29.83 "HgN/A
12:30 PM86 °FBroken clouds.8 mph66%29.86 "HgN/A
12:00 PM86 °FBroken clouds.7 mph66%29.86 "HgN/A
11:30 AM84 °FBroken clouds.6 mph70%29.89 "Hg5 mi
10:30 AM84 °FBroken clouds.2 mph74%29.89 "Hg5 mi
10:00 AM81 °FBroken clouds.3 mph84%29.89 "Hg5 mi
9:30 AM79 °FBroken clouds.5 mph84%29.89 "Hg5 mi
9:00 AM77 °FBroken clouds.3 mph94%29.89 "Hg5 mi
8:30 AM77 °FBroken clouds.2 mph89%29.89 "HgN/A
8:00 AM77 °FPartly sunny.2 mph89%29.89 "Hg5 mi
7:30 AM75 °FBroken clouds.2 mph94%29.86 "Hg5 mi
7:00 AM75 °FBroken clouds.1 mph94%29.86 "Hg4 mi
6:30 AM75 °FPartly cloudy.1 mph94%29.86 "Hg4 mi
6:00 AM75 °FPartly cloudy.No wind94%29.83 "Hg4 mi
5:30 AM75 °FPartly cloudy.3 mph94%29.83 "Hg4 mi
5:00 AM75 °FLight rain. Passing clouds.2 mph94%29.83 "Hg3 mi
4:30 AM75 °FPartly cloudy.2 mph94%29.83 "HgN/A
4:00 AM75 °FPartly cloudy.2 mph94%29.83 "HgN/A
3:30 AM75 °FPartly cloudy.3 mph94%29.83 "HgN/A
3:00 AM75 °FPartly cloudy.1 mph94%29.83 "HgN/A
2:30 AM75 °FPartly cloudy.1 mph94%29.83 "HgN/A
2:00 AM75 °FPartly cloudy.3 mph94%29.86 "HgN/A
1:30 AM77 °FPartly cloudy.No wind89%29.86 "HgN/A
1:00 AM77 °FPartly cloudy.No wind89%29.89 "HgN/A
12:30 AM77 °FPartly cloudy.1 mph89%29.89 "HgN/A
12:00 AM77 °FPartly cloudy.No wind89%29.92 "HgN/A
Weather by CustomWeather, © 2015

See weather overviewHow to use our weather pages